Cross City, FL

4:02 AM EDT on July 28, 2017 (GMT -0400)
Cross City

Weather History for KCTY - February, 2012

Change the Weather History Date:

Monday, February 13, 2012

  Actual Average Record
Temperature  
Mean Temperature 39 °F 57 °F  
Max Temperature 60 °F 70 °F 81 °F (2017)
Min Temperature 18 °F 43 °F 18 °F (2012)
Degree Days  
Heating Degree Days 26 9  
Month to date heating degree days 125  
Since 1 July heating degree days 1003  
Cooling Degree Days 0 0  
Month to date cooling degree days 12  
Year to date cooling degree days 23  
Moisture  
Dew Point 18 °F    
Average Humidity 52    
Maximum Humidity 81    
Minimum Humidity 16    
Precipitation  
Precipitation 0.00 in 0.11 in 0.51 in (2013)
Month to date precipitation 1.17  
Year to date precipitation 5.21  
Sea Level Pressure  
Sea Level Pressure 30.24 in    
Wind  
Wind Speed 1 mph (East)    
Max Wind Speed 6 mph    
Max Gust Speed -    
T = Trace of Precipitation, MM = Missing Value Source: NWS Daily Summary

Daily Weather History Graph

Daily Weather History Graph

Search for Another Location

Airport or City:

Trip Planner

Search our weather history database for the weather conditions in past years. The results will help you decide how hot, cold, wet, or windy it might be!

Date:

Astronomy

Feb. 13, 2012 Rise Set
Actual Time 7:13 AM EST 6:19 PM EST
Civil Twilight 6:49 AM EST 6:44 PM EST
Nautical Twilight 6:21 AM EST 7:12 PM EST
Astronomical Twilight 5:53 AM EST 7:40 PM EST
Moon No Moon Rise 10:47 AM EST (2/13)
Length of Visible Light 11h 54m
Length of Day
11h 05m
Waning Gibbous, 62% of the Moon is Illuminated
Feb 13
Waning Gibbous
Feb 14
Last Quarter
Feb 21
New
Feb 29
First Quarter
Mar 8
Full

Hourly Weather History & Observations

Time (EST) Temp. Windchill Dew Point Humidity Pressure Visibility Wind Dir Wind Speed Gust Speed Precip Events Conditions
12:53 AM 24.1 °F - 16.0 °F 71% 30.32 in - Calm Calm - N/A   Unknown
1:53 AM 21.9 °F - 15.1 °F 75% 30.32 in - Calm Calm - N/A   Unknown
2:53 AM 21.0 °F - 16.0 °F 81% 30.30 in - Calm Calm - N/A   Unknown
3:53 AM 19.9 °F - 15.1 °F 81% 30.30 in - Calm Calm - N/A   Unknown
4:53 AM 19.0 °F - 14.0 °F 81% 30.30 in - Calm Calm - N/A   Unknown
5:53 AM 19.0 °F - 14.0 °F 81% 30.30 in - Calm Calm - N/A   Unknown
6:53 AM 18.0 °F - 12.9 °F 81% 30.32 in - Calm Calm - N/A   Unknown
7:53 AM 21.9 °F - 16.0 °F 78% 30.32 in - Calm Calm - N/A   Unknown
8:53 AM 36.0 °F 32.1 °F 19.9 °F 52% 30.32 in - NE 4.6 mph - N/A   Unknown
9:53 AM 45.0 °F 41.8 °F 15.1 °F 30% 30.32 in - ENE 5.8 mph - N/A   Unknown
10:53 AM 48.0 °F - 14.0 °F 26% 30.31 in - Variable 4.6 mph - N/A   Unknown
11:53 AM 50.0 °F - 16.0 °F 26% 30.30 in - Calm Calm - N/A   Unknown
12:53 PM 55.0 °F - 15.1 °F 21% 30.26 in - South 5.8 mph - N/A   Unknown
1:53 PM 55.9 °F - 12.9 °F 18% 30.22 in - Calm Calm - N/A   Unknown
2:53 PM 59.0 °F - 12.0 °F 16% 30.19 in - Variable 3.5 mph - N/A   Unknown
3:53 PM 60.1 °F - 15.1 °F 17% 30.17 in - East 4.6 mph - N/A   Unknown
4:53 PM 59.0 °F - 12.9 °F 16% 30.16 in - ESE 4.6 mph - N/A   Unknown
5:53 PM 57.0 °F - 21.0 °F 25% 30.16 in - Calm Calm - N/A   Unknown
6:53 PM 48.0 °F - 24.1 °F 39% 30.16 in - Calm Calm - N/A   Unknown
7:53 PM 41.0 °F - 26.1 °F 55% 30.17 in - Calm Calm - N/A   Unknown
8:53 PM 39.9 °F - 27.0 °F 60% 30.17 in - Calm Calm - N/A   Unknown
9:53 PM 39.0 °F - 28.9 °F 67% 30.17 in - Calm Calm - N/A   Unknown
10:53 PM 36.0 °F - 28.0 °F 73% 30.15 in - Calm Calm - N/A   Unknown
11:53 PM 35.1 °F - 27.0 °F 72% 30.14 in - Calm Calm - N/A   Unknown